Regional Weather Roundup
Issued by NWS Mobile, AL

Home | Current Version | Previous Version | Text Only | Print | Product List | Glossary On
Versions: 1 2 3 4 5 6 7 8 9 10 11 12 13 14 15 16 17 18 19 20 21 22 23 24 25 26 27
000
ASUS44 KMOB 250212
RWRMOB
REGIONAL WEATHER ROUNDUP
NATIONAL WEATHER SERVICE MOBILE AL
900 PM CDT FRI MAR 24 2017

NOTE: "FAIR" INDICATES FEW OR NO CLOUDS BELOW 12,000 FEET WITH NO
      SIGNIFICANT WEATHER AND/OR OBSTRUCTIONS TO VISIBILITY.

  * THESE STATIONS ARE PART OF THE UNIVERSITY OF SOUTH ALABAMA
    MESONET AND ARE NOT UNDER NWS OR FAA QUALITY CONTROL.

ALZ061>064-250300-
COASTAL ALABAMA

CITY           SKY/WX    TMP DP  RH WIND       PRES   REMARKS
MOBILE REG APT CLOUDY    68  61  78 SE15      30.23R
BROOKLEY FIELD CLOUDY    69  64  84 SE17      30.24S
USA CAMPUS*      N/A     68  63  83 SE6       30.23S
DOG RIVER*       N/A     68  63  83 SE13      31.05R


CITY           SKY/WX    TMP DP  RH WIND       PRES   REMARKS
GULF SHORES    CLOUDY    66  64  93 SE9G23    30.23R

$$

ALZ051>060-250300-
INTERIOR SOUTHWEST AND SOUTH CENTRAL ALABAMA

CITY           SKY/WX    TMP DP  RH WIND       PRES   REMARKS
GREENVILLE     CLOUDY    69  53  56 S7        30.24R
EVERGREEN      CLOUDY    65  55  70 S7        30.24S
ATMORE*        NOT AVBL
ANDALUSIA/OPP  MOCLDY    68  53  58 CALM      30.25R
ANDALUSIA*       N/A     64  54  68 S2        30.25R
FLORALA APT    CLOUDY    64  53  67 CALM      30.27S
FLORALA*         N/A     63  54  72 CALM      31.04R

$$

FLZ001>006-250300-
WESTERN FLORIDA PANHANDLE

CITY           SKY/WX    TMP DP  RH WIND       PRES   REMARKS
PENSACOLA      CLOUDY    68  60  75 SE8       30.23F
NAS PENSACOLA  CLOUDY    68  60  75 SE10      30.24R
MILTON         CLOUDY    63  58  83 SE7       30.24F
WHTNG S FIELD  CLOUDY    66  60  81 S6        30.24F


CITY           SKY/WX    TMP DP  RH WIND       PRES   REMARKS
JAY*             N/A     64  57  77 SE6       30.24F
DUKE FIELD     MOCLDY    64  54  69 S5        30.24S
CRESTVIEW      CLOUDY    62  54  74 CALM      30.26S
VALPARAISO     CLOUDY    67  56  67 SE8       30.24S
DESTIN         PTCLDY    70  62  76 SE8       30.24F

$$

MSZ076-079-250300-
INTERIOR SOUTHEAST MISSISSIPPI

CITY           SKY/WX    TMP DP  RH WIND       PRES   REMARKS
LEAKESVILLE*   NOT AVBL
AGRICOLA*        N/A     66  63  88 CALM      30.19F

$$

MARINE OBSERVATIONS

STATION/POSITION TIME  TEMP    WIND        PRES    WAVE
                       AIR SEA DIR/SP/G            HT/PER
                 (UTC) (F)     (DEG/KT/KT) (MB)    (FT/S)
PASCAGOULA       0148   69     120/ 13/ 19 1022.4S
PETIT BOIS ISLND 0148   68     110/ 14/ 19 1023.3F
GRAND BAY        0045   70     130/ 18     1023.0F
KATRINA CUT      0130          130/ 17     1023.0R
CEDAR POINT      0130   69     130/ 15     1023.0S
E DAUPHIN ISLAND 0100   69     120/ 18/ 21 1022.8F
MIDDLE BAY LIGHT 0130   68     110/ 19     1023.0R
USCG MOBILE BAY  0148   68 70  130/ 12/ 14 1024.1S
STATE DOCKS      0148   68 65              1023.6S
MEAHER PARK      0130   67     120/  9     1023.7R
WEEKS BAY        0045   67                   N/A
FORT MORGAN      0148   69     130/ 20/ 22   N/A
12 S ORANGE BCH  0150   69 69  130/ 16/ 17 1023.2F   6/ 8
PENSACOLA BAY    0148   69 69  150/  5/  8 1024.1F
64 S DAUPHIN ISL 0150   71 73  120/ 17/ 23 1022.5S   8/ 8
67 S FORT MORGAN 0130   70     120/ 19     1022.4F

$$

SELECTED LOCATIONS ACROSS THE REGION

CITY           SKY/WX    TMP DP  RH WIND       PRES   REMARKS
NEW ORLEANS    CLOUDY    71  66  84 SE16      30.11F
GULFPORT       CLOUDY    70  66  87 SE21      30.17S
PASCAGOULA AP  CLOUDY    69  62  78 SE14      30.20S
PASCAGOULA*    NOT AVBL
HATTIESBURG    CLOUDY    69  62  78 SE20      30.15F
LAUREL         CLOUDY    68  59  73 SE16      30.16R
MERIDIAN       MOCLDY    68  61  78 SE16G23   30.15S
JACKSON        CLOUDY    72  60  66 S16G22    30.09R
MONTGOMERY     CLOUDY    69  54  58 SE6       30.22S
TROY           CLOUDY    68  54  60 SE5       30.25R
ASHFORD*         N/A     64  54  68 S2        30.25R
DOTHAN         CLOUDY    70  54  56 SE5       30.28S
PANAMA CITY    PTCLDY    61  56  83 CALM      30.24F

$$





USA.gov is the U.S. government's official web portal to all federal, state and local government web resources and services.